SKYSAT-C19 (46235 NORAD) Tracking and Keplerian Element Data

This shows tracking and keplerian element data for the satellite.

Feedback or suggestion? Click here.




ElementValue
Catalog46235
NameSKYSAT-C19
Epoch Orbit2496
Epoch Day26.74364628
Epoch Year2021
RAAN3.2175
Inclination52.997
Eccentricity0.0003982
Argument of Perigee54.9834
Mean Anonmoly305.1551
Mean Motion15.59416289
Decay Rate0.0001299
L11 46235U 20057BS 21026.74364628 .00012990 00000-0 16741-3 0 9998
L22 46235 52.9970 3.2175 0003982 54.9834 305.1551 15.59416289 24968

Live tracking and technical data element details for SKYSAT-C19 (NORAD 46235). SKYSAT-C19 can be tracked NOW for your location showing map with azimuth and elevation plus other details from your city location.

Track the satellite on the map from your city or location and see movement details for azimuth, elevation, latitude, longitude, range, height, and movement on the map or in text.







IsCatalogInMostPopularTable: catalog: 46235, numindb: 38
Update: records affected: 1



GetName: 46235 SKYSAT-C19

Hit Count: updated at: Thu, 28 Jan 2021 11:17:02 GMT